Казбеги

Грузия     42°39′31″N   44°38′29″E
темп.,
°C
ветер,
м/с
пор.,
м/с
влажн.,
%
обл.,
%
осадки,
мм/ч
давл.,
гПа
погр.,
м
6 марта, сб
сб601:00−8ююз44630 0.0 102143
04:00−8ююз54560 0.0 102248
07:00−8ююз444433 0.0 102235
10:00−3ююз455535 0.0 1020129
13:00−1ю45690 0.0 1017327
16:00−1ююз566718 0.0 1015358
19:00−6ююз786299 0.0 1016143
22:00−7ююз786199 0.0 1016138
7 марта, вс
вс701:00−8ююз6763100 0.0 1015112
04:00−9ююз4469100 0.0 101757
07:00−12ююз118748 0.3 102025
10:00−9ссв119058 1.1 1021262
13:00−6ссз1388100 0.8 1020536
16:00−6зсз148497 1.3 1020536
19:00−12ююз139560 0.3 102255
22:00−13ююз339349 0.3 102475
8 марта, пн
пн801:00−12ююз458312 0.0 102479
04:00−12ю56866 0.0 1024130
07:00−12ю568648 0.1 1023126
10:00−8ю588425 0.1 1022355
13:00−6ю468612 0.1 1018413
16:00−6ююз348730 0.2 1016495
19:00−10ююз239583 0.2 101783
22:00−11ююз229191 0.3 101831
9 марта, вт
вт901:00−12ююз1290100 0.0 101721
04:00−12юз1195100 0.3 101723
07:00−12зсз019799 0.2 101823
10:00−9св018493 0.3 1018314
13:00−7зюз128585 0.4 1016658
16:00−7зсз138392 1.1 1015659
19:00−12ююз228881 0.4 101828
22:00−14ююз338153 0.4 102139
10 марта, ср
ср1001:00−16ююз33723 0.1 102238
04:00−16ююз33658 0.2 102325
07:00−17ююз227540 0.3 102426
10:00−11ююв027342 0.4 1024368
13:00−9ю248145 0.3 1021653
16:00−8ююз247672 0.8 1019807
19:00−11ююз3592100 0.3 1020276
22:00−11ююз3590100 0.6 1020238